This is the latest recevied weather packets stored in our database for station/object KG4YZY-1. If no packets are shown the sender has not sent any weather packets the latest 10 day(s).
| Time | Temp. | Humidity | Pressure | Rain* | Wind** | Luminosity | Snow |
|---|---|---|---|---|---|---|---|
| 1787503203 | 23.33° C | 94% | 1018.6 hPa | 25.15 mm | - | - | - |
| 1787502903 | 23.33° C | 94% | 1019.1 hPa | 30.48 mm | - | - | - |
| 1787502604 | 23.33° C | 94% | 1019.5 hPa | 34.54 mm | - | - | - |
| 1787502304 | 23.33° C | 94% | 1019.7 hPa | 36.83 mm | - | - | - |
| 1787502003 | 23.33° C | 94% | 1019.7 hPa | 37.34 mm | - | - | - |
| 1787501704 | 23.33° C | 93% | 1019.9 hPa | 36.83 mm | - | - | - |
| 1787501404 | 23.33° C | 93% | 1019.9 hPa | 36.07 mm | - | - | - |
| 1787501103 | 23.89° C | 93% | 1020 hPa | 32.77 mm | - | - | - |
| 1787500804 | 23.89° C | 93% | 1020 hPa | 31.24 mm | - | - | - |
| 1787500504 | 23.89° C | 92% | 1019.5 hPa | 30.73 mm | - | - | - |
| 1787500204 | 23.89° C | 92% | 1019.8 hPa | 29.46 mm | - | - | - |
| 1787499904 | 24.44° C | 93% | 1019.7 hPa | 22.1 mm | - | - | - |
| 1787499603 | 24.44° C | 92% | 1019.6 hPa | 14.73 mm | - | - | - |
| 1787499303 | 24.44° C | 91% | 1019.5 hPa | 9.4 mm | - | - | - |
| 1787499004 | 24.44° C | 90% | 1019.3 hPa | 5.33 mm | - | - | - |
| 1787498703 | 25° C | 89% | 1019 hPa | 2.54 mm | - | - | - |
| 1787498404 | 25° C | 87% | 1018.6 hPa | 1.52 mm | - | - | - |
| 1787498104 | 25.56° C | 86% | 1018.6 hPa | 1.27 mm | - | - | - |
| 1787497804 | 26.11° C | 85% | 1018.7 hPa | 0.76 mm | - | - | - |
| 1787497503 | 26.67° C | 83% | 1018.7 hPa | 0.76 mm | - | - | - |
| 1787497204 | 27.78° C | 83% | 1018.5 hPa | 0.51 mm | - | - | - |
| 1787496904 | 28.33° C | 84% | 1018.4 hPa | 0 mm | - | - | - |
| 1787496603 | 28.33° C | 85% | 1018.4 hPa | 0 mm | - | - | - |
| 1787496303 | 28.33° C | 85% | 1018.4 hPa | 0 mm | - | - | - |
| 1787496005 | 28.33° C | 85% | 1018.2 hPa | 0 mm | - | - | - |
* Rain latest hour (hover to see other rain measurements)
** Current wind speed in m/s (hover to see current wind gust speed)